User: anonymous   Login
Location: Jaite
(41.2884°N, 81.5737°W)
Time: 01:03:03
(UTC+00:00)
Language:

Cosmos 1908 - Orbit

View from above orbital plane
View from above orbital plane
View from above satellite
View from above satellite

Ground track
Ground track

The orbit data is extracted from the following two-line orbital elements,

1 18748U 88001A   20090.68382917 +.00000422 +00000-0 +20984-4 0  9995
2 18748 082.4710 135.9880 0012712 339.2827 020.7888 15.14850204759490
Epoch (UTC): 30 March 2020 16:24:42
Eccentricity: 0.0012712
inclination: 82.4710°
perigee height: 512 km
apogee height: 530 km
right ascension of ascending node: 135.9880°
argument of perigee: 339.2827°
revolutions per day: 15.14850204
mean anomaly at epoch: 20.7888°
orbit number at epoch: 75949

The dashed part of the orbit path shows where the satellite is in the earth's shadow,  

DLR